Weather History for KPRN - January, 2013

Change the Weather History Date:

Thursday, January 3, 2013

  Actual Average Record
Temperature  
Mean Temperature 41 °F -  
Max Temperature 46 °F 59 °F 78 °F (1982)
Min Temperature 35 °F 38 °F 12 °F (1979)
Degree Days  
Heating Degree Days 24    
Moisture  
Dew Point 35 °F    
Average Humidity 83    
Maximum Humidity 93    
Minimum Humidity 56    
Precipitation  
Precipitation 0.32 in - - ()
Sea Level Pressure  
Sea Level Pressure 30.24 in    
Wind  
Wind Speed 6 mph (NNW)    
Max Wind Speed 9 mph    
Max Gust Speed -    
Visibility 7 miles    
Events Rain    
Averages and records for this station are not official NWS values.
T = Trace of Precipitation, MM = Missing Value Source: NWS Daily Summary

Daily Weather History Graph

Daily Weather History Graph

Search for Another Location

Airport or City:

Trip Planner

Search our weather history database for the weather conditions in past years. The results will help you decide how hot, cold, wet, or windy it might be!

Date:

Astronomy

Jan. 03, 2013 Rise Set
Actual Time 6:47 AM CST 4:55 PM CST
Civil Twilight 6:20 AM CST 5:22 PM CST
Nautical Twilight 5:49 AM CST 5:52 PM CST
Astronomical Twilight 5:20 AM CST 6:22 PM CST
Moon 11:04 PM CST (1/3) 10:21 AM CST (1/3)
Length of Visible Light 11h 01m
Length of Day
10h 08m
Waning Gibbous, 65% of the Moon is Illuminated
Jan 3
Waning Gibbous
Jan 4
Last Quarter
Jan 11
New
Jan 18
First Quarter
Jan 26
Full

Hourly Weather History & Observations

Time (CST) Temp. Windchill Dew Point Humidity Pressure Visibility Wind Dir Wind Speed Gust Speed Precip Events Conditions
12:23 AM 42.8 °F 38.6 °F 39.2 °F 87% 30.17 in 5.0 mi NNW 6.9 mph - 0.02 in Rain Light Rain
1:14 AM 41.0 °F 38.0 °F 39.2 °F 93% 30.19 in 5.0 mi NNW 4.6 mph - 0.02 in Rain Rain
1:56 AM 41.0 °F 36.4 °F 39.0 °F 93% 30.19 in 5.0 mi NNW 6.9 mph - 0.07 in Rain Rain
2:17 AM 41.0 °F 36.4 °F 39.2 °F 93% 30.19 in 4.0 mi NNW 6.9 mph - 0.03 in Rain Rain
2:30 AM 41.0 °F 36.4 °F 39.2 °F 93% 30.19 in 4.0 mi NNW 6.9 mph - 0.04 in Rain Rain
2:56 AM 41.0 °F 35.2 °F 39.0 °F 93% 30.19 in 5.0 mi NNW 9.2 mph - 0.06 in Rain Rain
3:24 AM 41.0 °F 36.4 °F 39.2 °F 93% 30.20 in 5.0 mi NNW 6.9 mph - 0.03 in Rain Rain
3:36 AM 41.0 °F 38.0 °F 39.2 °F 93% 30.19 in 5.0 mi North 4.6 mph - 0.04 in Rain Rain
3:56 AM 41.0 °F 38.0 °F 39.0 °F 93% 30.18 in 5.0 mi North 4.6 mph - 0.06 in Rain Rain
4:19 AM 41.0 °F 36.4 °F 39.2 °F 93% 30.18 in 5.0 mi NNW 6.9 mph - 0.02 in Rain Light Rain
4:56 AM 39.9 °F 33.9 °F 37.9 °F 93% 30.19 in 6.0 mi NNW 9.2 mph - 0.04 in Rain Light Rain
5:56 AM 39.9 °F 36.7 °F 37.9 °F 93% 30.22 in 6.0 mi NW 4.6 mph - 0.04 in Rain Light Rain
6:35 AM 39.2 °F 35.0 °F 37.4 °F 93% 30.21 in 7.0 mi North 5.8 mph - 0.02 in Rain Light Rain
6:56 AM 39.9 °F - 37.9 °F 93% 30.20 in 6.0 mi Calm Calm - 0.03 in Rain Light Rain
7:20 AM 39.2 °F 34.2 °F 37.4 °F 93% 30.23 in 4.0 mi NNW 6.9 mph - 0.01 in Rain Light Rain
7:56 AM 39.9 °F 37.8 °F 37.9 °F 93% 30.24 in 5.0 mi Variable 3.5 mph - 0.02 in   Overcast
8:56 AM 39.9 °F 33.9 °F 37.0 °F 89% 30.27 in 6.0 mi NNW 9.2 mph - N/A   Overcast
9:23 AM 41.0 °F 37.1 °F 37.4 °F 87% 30.26 in 6.0 mi NNW 5.8 mph - N/A   Overcast
9:32 AM 39.2 °F 35.0 °F 37.4 °F 93% 30.27 in 6.0 mi WNW 5.8 mph - N/A   Overcast
9:56 AM 39.9 °F 34.5 °F 37.0 °F 89% 30.28 in 6.0 mi NNW 8.1 mph - N/A   Overcast
10:49 AM 41.0 °F 35.2 °F 37.4 °F 87% 30.27 in 9.0 mi NNW 9.2 mph - N/A   Overcast
10:56 AM 41.0 °F 35.2 °F 37.0 °F 86% 30.27 in 9.0 mi North 9.2 mph - N/A   Overcast
11:56 AM 42.1 °F 37.1 °F 36.0 °F 79% 30.24 in 10.0 mi NNW 8.1 mph - N/A   Mostly Cloudy
12:56 PM 44.1 °F 39.5 °F 35.1 °F 71% 30.22 in 10.0 mi NNW 8.1 mph - N/A   Scattered Clouds
1:56 PM 46.0 °F 42.5 °F 35.1 °F 66% 30.23 in 10.0 mi NNW 6.9 mph - N/A   Partly Cloudy
2:56 PM 46.9 °F - 33.1 °F 59% 30.24 in 10.0 mi NNW 8.1 mph - N/A   Clear
3:56 PM 46.0 °F 41.4 °F 30.9 °F 56% 30.26 in 10.0 mi NNW 9.2 mph - N/A   Clear
4:56 PM 43.0 °F 40.3 °F 32.0 °F 65% 30.27 in 10.0 mi NNW 4.6 mph - N/A   Clear
5:56 PM 41.0 °F 37.1 °F 32.0 °F 70% 30.29 in 10.0 mi NNW 5.8 mph - N/A   Clear
6:56 PM 39.0 °F 34.8 °F 30.0 °F 70% 30.31 in 10.0 mi NNW 5.8 mph - N/A   Clear
7:56 PM 37.9 °F 34.4 °F 28.0 °F 68% 30.33 in 10.0 mi NNW 4.6 mph - N/A   Clear
8:56 PM 37.0 °F 31.6 °F 28.0 °F 70% 30.35 in 10.0 mi NNW 6.9 mph - N/A   Clear
9:56 PM 36.0 °F 32.1 °F 27.0 °F 70% 30.34 in 10.0 mi North 4.6 mph - N/A   Clear
10:56 PM 36.0 °F 32.1 °F 27.0 °F 70% 30.34 in 10.0 mi North 4.6 mph - N/A   Clear
11:56 PM 35.1 °F 29.3 °F 27.0 °F 72% 30.33 in 10.0 mi North 6.9 mph - N/A   Clear